Wind_Speed
121 121 120 119 118 117 116 115 114 113 112 112 111 111 111 111 111 111 111 112 113 114 115 116 117 119 122 124 127 129 131 132 133 133 133 132 132 132 133 133 133 133 133 132 132 132 132 132 131 130 129 127 126 125 124 124 123 122 121 121 120 119
123 122 121 120 119 117 116 115 113 112 111 111 110 110 109 109 109 109 109 110 110 111 112 113 114 115 117 120 123 126 128 130 132 133 134 135 135 135 135 135 135 136 136 137 137 136 136 136 136 136 136 135 134 133 131 130 129 127 126 126 125 124
124 123 122 120 119 117 116 115 114 112 112 111 110 110 109 108 108 108 108 108 109 109 110 111 112 113 115 116 118 121 124 126 129 131 132 134 136 136 137 137 137 138 138 139 140 141 140 140 140 140 140 140 140 139 138 137 136 134 133 131 130 129
124 123 121 120 119 117 116 115 114 113 112 111 110 109 108 107 107 107 107 107 108 108 109 110 111 112 113 115 116 118 120 122 124 126 128 130 133 134 136 137 138 139 139 140 141 142 143 144 144 144 143 143 143 143 143 142 141 141 140 138 137 135
124 123 121 120 119 117 116 115 114 113 112 111 110 109 108 107 107 107 107 107 107 108 109 110 111 112 113 114 115 116 117 119 120 122 124 126 128 130 132 134 135 137 138 139 140 142 143 144 146 147 147 146 146 146 146 146 146 145 144 143 143 142
124 123 121 120 118 117 116 115 114 113 111 110 109 108 108 107 107 107 107 107 107 108 109 110 111 112 113 114 115 115 117 118 119 120 121 122 124 126 127 129 131 132 134 136 137 139 141 143 144 146 148 150 150 150 149 149 149 149 148 147 147 146
124 122 121 119 118 116 115 114 113 112 111 110 109 108 107 107 106 106 106 106 107 108 108 109 110 111 112 113 114 115 116 117 118 119 120 121 122 123 125 126 127 128 129 131 133 135 137 139 141 143 145 148 150 152 153 153 153 152 151 151 150 150
123 122 120 119 117 116 115 114 112 111 110 109 108 107 106 106 105 105 105 105 105 106 107 108 109 110 111 112 113 114 115 116 117 118 119 120 121 122 123 124 125 126 127 128 129 131 132 134 136 138 140 143 146 149 151 153 155 156 155 154 154 153
122 121 120 119 118 117 115 113 111 110 108 107 106 105 104 103 103 102 102 102 103 103 104 105 106 107 108 109 111 112 113 114 116 117 118 119 120 121 123 124 125 126 127 127 128 129 130 131 132 134 136 138 140 142 145 147 150 152 155 157 157 157
121 121 120 119 118 116 114 112 110 108 106 104 103 102 101 101 100 100 100 100 100 100 100 101 102 103 104 106 107 108 110 111 113 114 116 117 119 120 121 122 124 125 126 127 127 128 129 129 130 131 133 134 135 136 138 139 141 144 147 150 153 156
121 120 119 118 116 114 111 109 107 105 103 102 101 100 99 99 99 98 98 98 97 97 97 98 99 100 101 102 103 105 106 107 109 110 112 114 115 117 118 120 121 122 124 125 126 127 128 128 129 130 131 132 132 133 133 134 134 136 137 139 142 146
121 120 118 115 113 110 108 106 104 103 101 101 100 99 98 97 97 97 96 96 96 95 95 95 96 97 98 99 100 102 103 104 105 106 108 109 111 112 114 115 117 118 119 120 122 123 124 126 127 129 130 131 131 131 131 130 130 130 130 131 133 135
119 117 114 111 109 107 105 103 102 100 99 98 98 97 96 95 95 95 95 95 94 94 95 95 95 96 97 98 99 100 100 101 103 104 105 106 107 108 109 110 112 113 114 116 116 118 119 121 123 125 127 128 129 129 128 128 127 127 127 127 127 128
114 112 109 107 106 104 103 101 100 98 97 96 95 95 94 94 93 93 93 93 93 94 94 94 95 95 96 97 97 98 99 100 101 102 103 104 105 106 107 108 108 109 111 112 112 113 114 116 118 120 122 123 124 125 125 124 124 124 125 125 126 126
109 107 106 105 104 102 101 100 99 98 97 96 95 94 93 93 93 93 93 93 93 93 93 93 94 94 94 95 96 96 97 98 99 99 100 101 102 103 104 105 106 107 108 109 110 110 111 112 115 117 118 118 119 120 121 120 119 119 120 121 122 123
105 104 103 102 101 101 100 99 99 98 97 96 95 94 93 92 92 92 92 92 92 92 92 92 92 92 93 93 94 94 95 96 96 96 97 97 97 98 99 100 102 103 105 106 107 107 108 110 113 114 115 115 116 116 116 115 114 114 115 116 117 119
103 102 101 101 100 100 99 98 98 98 97 96 95 94 93 92 91 91 91 91 91 91 91 91 91 91 91 92 92 93 93 94 94 94 94 95 95 96 96 97 98 99 100 101 102 102 103 106 109 111 112 113 113 113 112 111 111 111 111 112 114 116
102 101 101 100 100 99 99 98 98 97 97 96 94 93 92 91 91 91 91 91 91 91 91 91 90 91 91 91 91 92 92 92 92 92 93 93 94 94 95 95 96 97 97 98 98 99 99 101 105 106 106 107 109 110 110 110 110 109 109 110 111 112
101 101 100 100 99 99 99 98 97 97 96 95 94 93 92 92 91 91 91 91 90 90 90 90 90 90 91 91 91 91 91 91 92 92 92 92 92 93 94 94 95 95 95 95 96 97 97 99 101 102 101 102 104 105 106 107 108 108 108 108 109 110
101 100 99 99 99 98 98 97 96 96 95 94 93 93 92 92 91 91 91 90 90 90 89 89 89 90 90 90 90 90 90 91 91 91 91 91 91 92 93 93 93 93 94 94 95 97 97 97 98 99 99 100 101 101 101 102 103 104 105 105 107 108
100 99 99 98 98 97 97 96 96 95 95 94 93 92 91 91 91 91 91 90 90 89 89 88 89 89 89 89 89 89 90 90 90 90 90 90 90 91 91 91 91 91 93 94 95 96 95 95 96 97 97 98 99 98 98 98 98 99 100 101 102 104
98 98 97 97 97 96 96 95 95 94 94 93 92 92 91 91 91 90 90 90 89 88 88 88 88 88 88 88 88 88 89 89 89 89 90 90 90 89 89 90 90 90 92 94 95 95 94 94 95 96 96 97 97 96 96 96 96 96 96 97 97 98
96 96 96 96 96 95 95 95 94 94 93 93 92 91 91 90 90 89 89 88 87 86 86 86 86 86 86 86 86 86 87 87 87 87 88 88 88 87 87 88 88 89 91 93 94 94 93 93 94 94 95 96 95 95 94 94 94 94 93 94 94 95
95 95 95 95 95 95 95 94 93 93 92 91 91 90 90 89 88 88 87 86 86 85 85 84 84 84 84 84 84 84 84 85 85 85 85 85 84 84 84 85 86 87 88 91 92 92 92 92 92 93 94 94 94 93 93 93 93 92 92 92 92 93
95 94 94 94 94 94 93 93 92 91 90 89 89 88 88 87 87 87 86 85 85 84 84 84 84 84 83 83 83 83 83 84 84 83 83 83 82 81 82 83 84 85 86 88 89 90 90 90 90 91 91 92 92 92 92 92 92 92 91 90 90 91
94 93 92 92 92 92 92 91 90 88 87 87 86 86 86 86 86 86 85 85 84 84 83 83 83 83 82 82 81 82 82 82 82 82 82 81 80 80 81 82 83 84 85 86 87 88 89 88 88 88 89 89 89 90 90 91 91 91 90 89 88 89
92 91 91 91 91 90 90 89 87 86 85 84 84 84 84 85 85 85 84 84 83 82 82 82 82 81 80 80 80 80 80 80 80 79 79 78 78 78 79 80 82 83 84 85 86 87 88 88 87 87 86 86 86 87 88 88 88 88 88 87 87 87
89 89 89 89 88 88 88 87 85 83 83 83 84 84 84 84 84 83 83 82 81 80 80 80 79 78 78 78 78 78 78 77 76 76 76 75 75 75 76 77 78 80 80 82 83 84 85 86 86 85 84 84 84 84 85 85 86 86 86 85 85 85
87 87 87 86 86 85 85 84 82 82 82 83 83 83 83 83 82 82 81 80 79 78 78 77 77 76 76 76 76 76 76 75 74 73 73 73 72 72 73 73 75 76 76 77 79 80 81 82 82 81 81 80 81 81 82 82 83 83 83 83 83 83
85 85 85 84 83 83 82 82 81 81 81 81 81 80 80 80 80 80 80 79 78 77 77 76 75 75 75 76 76 76 75 74 73 72 71 71 70 69 70 71 72 73 73 74 75 76 77 78 78 77 76 76 76 77 77 78 78 78 79 79 79 79
84 84 83 82 81 81 81 80 80 79 79 79 78 78 78 78 78 78 78 78 77 76 76 76 75 75 75 75 75 75 74 74 73 71 70 70 69 68 67 68 69 71 72 72 73 73 74 75 75 74 73 72 73 73 73 74 74 74 74 74 75 75
83 82 82 81 80 79 79 79 78 77 77 77 76 76 76 76 76 77 77 77 76 76 76 76 75 75 74 74 74 74 74 74 73 71 69 69 69 68 66 66 67 69 70 71 71 72 72 72 72 72 71 71 71 71 71 71 71 71 71 70 71 73
83 82 81 80 79 78 78 77 76 75 75 75 74 74 74 74 74 75 75 75 75 75 75 75 74 74 74 73 72 72 72 73 73 72 69 68 67 68 67 66 66 67 68 69 69 70 71 71 70 69 69 69 69 69 69 69 69 69 68 67 68 70
82 81 80 80 79 78 78 76 75 75 75 75 74 74 74 73 73 73 73 73 73 74 74 73 73 72 72 72 71 70 70 70 72 73 72 69 67 66 65 65 65 66 67 67 67 68 68 69 69 68 67 68 68 68 68 68 68 68 66 65 66 67
82 81 81 80 78 78 77 76 75 75 75 74 73 73 73 72 71 71 71 71 71 72 72 72 71 71 70 69 69 69 69 68 68 70 72 72 69 66 64 63 63 64 66 67 67 66 66 66 66 66 65 66 66 66 66 66 67 67 65 63 65 66
82 82 80 79 78 77 77 75 74 74 74 73 73 72 71 71 70 70 70 69 69 69 70 70 69 69 68 67 67 67 67 67 66 67 68 70 70 69 67 64 62 61 62 64 65 65 64 63 63 63 63 63 64 65 64 64 65 65 64 62 62 64
82 81 79 78 77 76 76 74 74 74 73 73 72 71 71 70 69 69 69 68 67 67 68 68 68 67 66 66 65 65 64 65 65 65 65 65 66 67 67 66 64 61 60 60 61 62 62 61 60 60 60 60 61 62 63 62 62 63 62 61 61 62
80 79 78 76 76 76 75 74 74 74 73 72 72 71 70 69 69 69 68 67 66 66 66 66 66 65 65 64 64 63 63 63 63 63 63 63 63 63 64 64 63 62 61 60 58 58 59 58 58 58 58 58 58 59 60 60 60 60 60 59 59 60
Wind_Direction
292 292 291 290 289 289 288 287 286 285 284 283 282 281 280 279 278 277 276 275 274 272 271 270 268 267 266 265 264 263 262 262 261 260 259 258 257 256 255 255 255 255 255 256 255 255 255 255 254 254 254 253 253 253 253 254 254 254 254 254 254 254
293 292 292 291 291 290 289 288 287 286 285 283 282 281 280 279 278 277 276 275 274 273 271 270 269 268 266 265 264 263 263 262 261 261 260 259 258 257 256 255 255 255 255 255 255 255 255 255 254 254 254 254 253 253 253 253 253 253 253 253 253 253
293 293 293 292 291 291 290 289 288 286 285 284 283 282 280 279 278 277 276 275 274 273 272 271 270 269 268 267 266 265 264 263 262 261 261 260 260 259 258 257 256 255 255 254 254 254 254 254 254 254 254 254 253 253 253 253 253 253 253 253 253 253
294 293 293 292 291 290 290 289 288 287 286 285 283 282 281 279 278 277 276 275 274 273 272 272 271 270 269 268 267 266 265 264 264 263 262 262 261 260 260 259 258 257 256 255 255 254 253 253 253 253 253 253 253 253 253 253 253 253 253 253 252 252
294 293 293 292 291 290 289 289 288 287 286 285 284 282 281 279 278 277 276 275 274 273 272 272 271 270 270 269 268 267 267 266 265 264 264 263 263 262 261 261 260 260 259 258 257 256 255 254 253 253 253 253 253 253 253 253 253 253 253 253 253 253
294 293 293 292 291 291 290 289 288 287 286 285 283 282 281 280 278 277 276 275 274 274 273 272 271 270 270 269 269 268 267 267 266 266 265 265 264 264 263 262 262 261 260 260 259 258 257 256 255 254 253 253 252 252 252 252 252 252 252 253 253 253
294 293 292 292 291 291 290 289 287 286 285 284 283 282 281 280 279 278 277 276 275 274 273 272 271 271 270 269 269 268 267 267 266 266 266 265 265 264 264 264 263 262 262 261 260 260 259 258 257 257 255 254 254 253 252 252 252 253 253 253 253 253
294 293 293 292 291 290 289 288 287 286 285 284 283 282 281 280 279 278 277 276 275 274 273 272 272 271 270 270 269 268 268 267 267 266 266 265 265 264 264 264 264 263 263 262 262 261 260 260 259 258 258 257 256 255 254 253 253 253 253 253 253 253
294 293 292 292 291 290 289 288 287 287 286 285 284 283 281 280 279 278 277 276 275 274 273 273 272 271 271 270 270 269 269 268 267 267 266 266 265 264 264 264 264 264 264 263 263 262 262 261 261 260 259 259 258 257 257 256 255 254 254 254 254 254
293 293 292 291 291 290 289 289 288 287 286 285 284 283 282 281 280 279 278 277 276 275 274 274 273 272 271 270 270 269 268 268 268 267 267 266 266 265 265 264 264 264 264 264 264 263 263 263 262 262 261 261 260 260 259 258 258 257 256 255 255 255
293 292 292 291 290 290 289 288 287 287 286 285 284 283 283 282 281 280 280 279 278 277 276 275 274 273 272 271 271 270 269 268 268 267 267 267 266 266 266 265 265 264 264 264 264 264 264 264 264 263 263 263 262 262 261 260 260 259 259 258 257 257
292 292 291 290 289 289 288 288 287 287 286 285 285 284 284 283 283 282 282 281 280 279 278 277 276 275 274 273 272 271 270 270 269 268 268 267 267 266 266 266 266 265 265 265 265 265 264 264 264 264 264 264 263 263 263 262 262 261 260 260 259 259
291 291 290 289 289 288 287 287 286 286 286 285 285 285 285 284 284 283 283 282 281 280 279 277 276 275 274 273 272 272 271 271 270 269 269 268 268 267 267 266 266 266 266 265 265 265 265 265 264 264 264 264 264 264 264 263 263 263 262 262 261 260
291 290 290 289 289 288 288 288 287 287 287 287 286 286 286 285 284 283 282 281 280 279 278 277 276 275 274 273 272 272 271 270 270 269 269 268 268 268 268 268 268 267 267 266 266 265 265 265 264 264 264 264 264 264 263 263 263 263 263 263 262 262
290 290 290 290 289 289 289 289 289 289 289 288 288 287 286 286 285 284 283 282 281 279 278 277 276 276 275 274 273 273 272 271 270 269 269 268 268 268 268 268 268 268 268 267 267 267 266 266 265 265 265 264 264 264 264 264 263 263 263 263 263 263
290 290 290 290 290 290 290 290 290 290 290 289 288 287 286 286 285 284 283 282 281 280 280 279 278 277 277 276 275 275 274 273 272 272 271 270 270 269 268 268 267 267 267 267 267 267 267 267 266 266 266 266 265 265 265 265 265 264 264 263 263 263
290 290 290 290 290 290 290 291 291 291 290 290 289 288 287 286 286 285 284 283 283 282 281 281 280 279 278 277 276 276 275 274 274 273 273 272 272 271 270 270 269 268 267 267 267 266 266 266 265 266 266 266 267 267 267 267 266 265 264 263 263 262
290 291 291 291 291 292 292 292 291 291 290 289 289 288 288 287 287 286 285 284 284 283 282 282 281 280 279 279 278 277 276 276 275 274 274 273 273 272 271 271 270 270 269 269 269 268 267 266 265 265 266 266 266 267 267 267 267 266 265 264 264 263
291 292 292 292 292 292 292 291 290 290 290 289 289 289 288 288 287 286 285 284 284 283 283 282 282 281 280 279 279 278 277 277 276 275 274 274 273 273 272 272 271 271 271 270 270 269 268 267 267 267 266 266 265 265 265 266 266 266 266 266 266 265
292 292 292 292 292 291 291 290 290 290 290 290 289 289 289 288 287 286 285 285 284 283 283 282 281 281 280 279 279 278 278 277 276 275 275 274 274 273 273 272 272 272 272 271 270 269 269 269 268 268 268 267 266 266 265 265 265 265 265 265 265 266
292 292 292 292 291 290 290 290 290 290 290 290 289 289 288 287 287 286 285 285 284 283 282 282 281 280 280 279 279 278 278 277 277 277 276 275 274 274 273 273 273 273 272 272 271 270 270 269 269 269 268 268 267 267 267 266 266 265 265 265 265 265
292 292 291 291 291 291 291 290 290 290 290 289 289 288 287 286 286 285 284 284 283 283 282 281 281 280 279 279 279 278 278 278 277 277 276 276 275 275 275 275 274 274 273 273 272 271 271 270 270 269 269 269 268 268 268 267 267 266 266 265 265 265
291 291 291 291 291 291 291 290 290 290 289 289 288 287 287 286 285 285 284 284 283 282 282 281 281 280 279 279 278 278 278 277 277 277 276 276 276 276 276 276 275 274 274 273 273 273 272 271 271 270 270 270 269 269 269 268 268 267 267 266 266 265
291 291 292 292 291 291 290 290 289 289 288 288 288 288 287 287 286 285 285 284 284 283 283 282 281 281 280 280 279 279 279 278 278 277 277 277 277 277 277 276 275 275 274 274 273 273 273 272 271 271 271 271 270 270 270 269 269 268 268 267 267 267
292 292 292 291 290 290 289 289 288 288 288 288 288 288 287 287 286 286 285 285 285 284 284 283 283 282 281 281 281 280 280 279 279 278 278 278 278 278 277 277 276 276 275 274 274 274 273 273 272 272 271 271 271 271 271 270 270 269 269 268 268 268
292 291 291 290 289 289 288 288 288 289 289 288 288 287 287 287 286 286 286 286 285 285 285 284 283 283 283 282 282 281 280 279 279 279 279 279 278 278 277 276 276 275 275 275 275 275 274 274 273 272 272 272 272 272 272 271 271 270 270 269 269 268
291 291 290 289 289 289 289 289 289 289 289 288 288 288 287 287 287 287 286 286 286 285 285 285 284 284 284 283 282 281 281 280 280 280 279 279 278 277 276 276 275 275 274 274 274 274 275 274 274 273 273 273 273 272 272 272 272 271 271 270 270 269
290 290 289 289 289 289 289 289 290 290 289 289 289 288 288 288 288 287 287 286 286 286 286 285 285 285 285 284 283 282 281 281 281 280 280 279 278 277 276 276 275 274 274 274 273 274 274 274 274 274 274 273 273 273 272 272 272 272 272 271 270 270
290 289 289 289 289 289 289 289 290 290 290 289 289 289 289 288 288 288 287 287 287 287 287 286 286 286 285 285 284 283 283 282 282 281 280 280 279 278 278 277 276 275 275 274 274 274 274 274 274 274 274 274 273 273 272 272 272 271 271 271 270 270
290 289 289 289 289 289 289 289 290 290 290 289 289 289 289 289 288 288 288 288 288 288 288 287 287 286 286 285 285 284 284 284 283 282 281 280 280 279 278 278 277 277 276 276 275 275 275 275 275 275 275 274 274 273 273 272 272 271 271 270 270 269
289 289 289 289 289 290 290 290 290 290 290 289 289 289 289 289 289 289 289 289 289 288 288 287 287 286 285 285 285 285 285 285 284 283 282 281 280 279 278 278 278 278 277 277 277 276 276 277 277 277 276 275 275 274 274 273 273 272 272 271 271 270
290 290 290 290 290 290 290 290 290 290 289 289 289 289 289 289 289 289 288 288 288 288 287 287 286 286 285 285 285 285 285 285 284 283 282 282 282 281 279 278 278 278 278 278 278 278 278 278 278 278 278 277 276 276 275 274 273 273 272 272 271 271
291 291 291 291 291 291 291 290 290 290 289 289 289 289 288 288 288 288 288 287 287 287 286 286 286 285 285 285 285 285 285 285 285 284 283 281 281 281 280 280 279 278 278 278 279 279 279 279 279 279 279 279 278 278 277 276 275 274 273 272 272 271
292 292 292 292 292 292 291 291 291 291 290 290 290 289 289 288 288 287 287 287 287 286 286 286 286 286 286 286 286 285 284 284 284 285 284 282 281 280 280 280 280 279 279 279 278 279 279 280 280 280 280 280 279 279 279 278 277 276 275 274 273 272
293 293 293 293 292 292 292 292 292 291 291 290 290 290 289 289 288 287 287 286 286 286 286 286 286 286 286 285 285 285 284 284 283 284 284 284 283 281 279 279 279 279 279 279 279 279 279 279 280 280 280 280 279 279 278 278 278 277 276 276 275 274
293 293 292 292 292 292 292 292 292 291 291 290 290 289 289 288 288 287 286 286 286 286 286 285 285 285 285 284 284 284 284 283 283 282 282 283 284 283 282 280 278 277 277 278 279 279 279 279 279 279 279 279 279 278 278 277 277 277 277 276 276 275
292 292 292 292 292 292 292 292 292 291 291 290 290 290 289 289 288 287 287 286 286 286 285 285 285 285 285 285 284 284 283 283 283 282 282 282 282 283 284 283 282 280 278 277 277 278 278 278 277 277 277 277 278 278 278 278 277 277 276 276 275 274
291 292 292 293 293 292 292 292 292 291 291 291 291 290 290 290 289 288 288 287 287 286 286 285 285 285 286 285 285 285 284 283 283 283 282 282 282 282 283 283 283 283 282 280 279 278 278 278 278 277 277 276 276 276 277 277 277 276 276 275 274 273
Height
10506 10502 10499 10496 10493 10489 10486 10482 10479 10476 10473 10470 10467 10464 10461 10457 10454 10452 10450 10448 10445 10443 10442 10441 10440 10439 10439 10438 10437 10437 10437 10437 10438 10439 10440 10442 10443 10444 10444 10445 10446 10447 10448 10450 10451 10453 10454 10455 10457 10459 10460 10462 10463 10465 10466 10467 10469 10471 10472 10472 10475 10477
10487 10484 10480 10477 10474 10470 10467 10463 10460 10457 10453 10450 10447 10443 10441 10437 10434 10432 10429 10427 10425 10423 10421 10419 10418 10417 10416 10416 10415 10415 10415 10415 10415 10416 10417 10418 10420 10421 10423 10424 10425 10426 10427 10428 10429 10431 10432 10434 10436 10437 10440 10441 10443 10445 10446 10447 10449 10452 10453 10453 10455 10458
10469 10466 10462 10459 10455 10452 10448 10444 10440 10437 10433 10430 10426 10423 10421 10418 10415 10412 10410 10407 10405 10403 10401 10399 10398 10396 10395 10394 10394 10394 10394 10394 10394 10394 10395 10395 10396 10397 10399 10401 10403 10405 10406 10406 10407 10408 10410 10411 10413 10415 10418 10419 10421 10423 10425 10427 10428 10431 10433 10434 10436 10437
10451 10447 10444 10441 10437 10434 10430 10426 10421 10417 10414 10410 10407 10405 10402 10399 10396 10393 10391 10389 10387 10385 10382 10380 10379 10377 10376 10375 10373 10373 10373 10373 10373 10374 10374 10374 10374 10375 10376 10378 10379 10381 10383 10385 10385 10386 10387 10388 10390 10392 10394 10397 10399 10400 10402 10404 10407 10409 10412 10414 10416 10417
10432 10429 10425 10421 10417 10414 10411 10407 10403 10399 10395 10391 10388 10386 10383 10380 10377 10374 10372 10370 10368 10366 10364 10362 10360 10358 10357 10355 10354 10353 10353 10352 10353 10353 10353 10353 10353 10353 10354 10355 10357 10358 10360 10362 10363 10364 10365 10366 10367 10369 10371 10373 10375 10377 10379 10381 10384 10387 10390 10392 10395 10397
10413 10409 10406 10401 10397 10394 10391 10387 10383 10379 10375 10372 10369 10366 10363 10361 10358 10356 10354 10352 10350 10348 10345 10344 10342 10340 10338 10337 10335 10334 10333 10333 10333 10333 10333 10333 10333 10333 10333 10333 10335 10336 10337 10338 10339 10340 10342 10343 10345 10347 10348 10349 10350 10353 10356 10358 10360 10364 10368 10371 10373 10376
10394 10390 10387 10383 10380 10376 10372 10367 10363 10359 10355 10353 10350 10347 10344 10341 10340 10338 10335 10333 10331 10328 10326 10324 10323 10321 10320 10318 10317 10315 10314 10314 10313 10312 10312 10312 10313 10312 10312 10312 10313 10313 10314 10315 10316 10317 10318 10319 10321 10323 10325 10325 10326 10328 10332 10334 10337 10340 10345 10349 10353 10355
10375 10371 10367 10363 10360 10357 10352 10348 10344 10340 10336 10333 10331 10328 10325 10322 10321 10319 10316 10314 10312 10310 10308 10306 10304 10302 10301 10300 10298 10296 10295 10294 10293 10293 10292 10292 10292 10292 10291 10291 10291 10291 10292 10293 10293 10294 10295 10296 10297 10299 10300 10301 10301 10303 10307 10311 10315 10318 10322 10326 10331 10334
10357 10352 10347 10342 10339 10335 10331 10328 10324 10321 10317 10314 10312 10309 10306 10304 10302 10299 10297 10296 10294 10292 10291 10288 10287 10285 10283 10281 10279 10278 10276 10275 10274 10273 10272 10272 10272 10272 10272 10271 10271 10270 10270 10271 10272 10272 10273 10275 10276 10276 10276 10277 10278 10279 10283 10287 10292 10296 10300 10304 10308 10311
10338 10333 10328 10323 10318 10314 10311 10308 10305 10302 10298 10296 10293 10290 10288 10286 10284 10281 10279 10278 10277 10275 10274 10272 10270 10268 10265 10263 10262 10260 10258 10257 10256 10254 10253 10252 10251 10251 10251 10251 10251 10251 10250 10250 10251 10252 10252 10254 10255 10255 10254 10254 10256 10258 10261 10265 10270 10274 10278 10282 10286 10289
10320 10315 10310 10305 10300 10295 10292 10289 10286 10284 10281 10278 10275 10273 10271 10269 10266 10264 10262 10261 10259 10258 10257 10255 10253 10250 10247 10245 10243 10241 10240 10239 10238 10236 10235 10233 10232 10232 10231 10231 10231 10232 10232 10232 10232 10232 10233 10233 10234 10234 10232 10231 10234 10236 10239 10243 10248 10252 10257 10261 10265 10268
10300 10296 10291 10286 10282 10278 10275 10272 10270 10267 10264 10261 10259 10257 10255 10253 10251 10248 10246 10244 10242 10241 10239 10237 10235 10232 10229 10227 10225 10223 10222 10221 10220 10219 10218 10216 10215 10214 10213 10213 10213 10213 10213 10214 10214 10214 10214 10214 10214 10213 10210 10210 10212 10214 10217 10221 10226 10231 10235 10240 10245 10248
10281 10276 10272 10268 10264 10261 10259 10257 10255 10252 10250 10247 10245 10243 10241 10239 10237 10234 10231 10228 10226 10224 10222 10219 10217 10214 10212 10209 10208 10206 10205 10204 10202 10200 10199 10198 10197 10196 10195 10195 10195 10195 10194 10194 10195 10196 10195 10195 10193 10190 10188 10189 10191 10193 10196 10201 10206 10210 10214 10218 10222 10227
10263 10259 10255 10251 10247 10244 10242 10240 10239 10237 10235 10234 10231 10228 10226 10224 10221 10218 10215 10213 10210 10207 10204 10202 10200 10197 10195 10193 10191 10189 10188 10186 10184 10183 10182 10181 10180 10178 10178 10178 10177 10177 10175 10174 10176 10177 10177 10176 10173 10168 10167 10169 10171 10172 10174 10180 10186 10190 10193 10197 10200 10203
10247 10243 10239 10235 10231 10228 10225 10223 10221 10220 10219 10217 10215 10212 10210 10207 10204 10201 10198 10195 10192 10189 10187 10185 10183 10181 10178 10176 10174 10172 10170 10168 10167 10166 10165 10165 10164 10163 10163 10161 10159 10158 10157 10155 10157 10158 10158 10156 10152 10148 10149 10151 10152 10152 10153 10159 10167 10173 10176 10178 10179 10181
10231 10228 10225 10221 10218 10215 10212 10209 10206 10204 10202 10200 10198 10196 10193 10190 10188 10184 10181 10178 10174 10172 10170 10168 10166 10165 10163 10161 10158 10156 10154 10152 10151 10149 10148 10149 10148 10147 10146 10145 10143 10142 10140 10138 10139 10141 10141 10138 10133 10130 10131 10132 10133 10133 10136 10142 10149 10154 10158 10160 10161 10161
10217 10214 10211 10208 10205 10202 10199 10196 10193 10189 10186 10183 10180 10178 10176 10174 10172 10169 10166 10162 10158 10156 10154 10152 10150 10149 10147 10145 10142 10140 10138 10136 10135 10134 10133 10132 10131 10130 10129 10127 10126 10125 10123 10122 10122 10124 10126 10122 10114 10112 10115 10116 10116 10117 10120 10125 10130 10134 10137 10139 10139 10138
10203 10200 10197 10194 10190 10187 10184 10181 10177 10174 10170 10167 10165 10163 10161 10159 10157 10154 10151 10147 10144 10141 10138 10136 10135 10133 10131 10129 10126 10125 10123 10121 10120 10119 10118 10117 10115 10113 10112 10111 10109 10108 10107 10107 10106 10106 10108 10104 10096 10096 10101 10102 10101 10102 10104 10107 10110 10112 10115 10117 10117 10116
10189 10186 10184 10180 10177 10173 10169 10166 10162 10158 10155 10152 10150 10148 10146 10144 10142 10139 10136 10133 10130 10127 10124 10122 10121 10118 10115 10112 10110 10109 10108 10106 10104 10103 10102 10102 10101 10098 10096 10094 10094 10093 10092 10092 10090 10087 10089 10087 10081 10081 10086 10086 10085 10087 10089 10090 10092 10094 10096 10098 10098 10097
10176 10173 10170 10167 10163 10159 10155 10151 10148 10144 10141 10139 10137 10134 10132 10129 10125 10122 10120 10117 10115 10113 10111 10109 10106 10103 10100 10097 10095 10094 10092 10090 10088 10087 10086 10087 10086 10083 10080 10079 10080 10078 10076 10075 10074 10070 10072 10072 10068 10066 10069 10069 10067 10070 10074 10076 10078 10080 10081 10082 10082 10081
10163 10160 10156 10152 10148 10145 10141 10138 10135 10131 10128 10125 10123 10121 10118 10114 10110 10107 10104 10102 10100 10098 10096 10094 10091 10088 10085 10083 10081 10079 10077 10074 10073 10072 10071 10070 10069 10069 10067 10065 10065 10065 10060 10057 10056 10055 10056 10057 10055 10052 10052 10052 10051 10054 10057 10060 10063 10065 10065 10066 10066 10065
10150 10147 10143 10138 10134 10131 10128 10124 10121 10118 10114 10111 10108 10106 10103 10100 10096 10093 10090 10088 10085 10084 10082 10079 10076 10074 10071 10069 10067 10065 10062 10061 10059 10058 10056 10054 10053 10054 10054 10052 10051 10050 10046 10040 10039 10039 10040 10040 10040 10038 10036 10036 10036 10039 10042 10044 10046 10048 10049 10050 10051 10050
10137 10133 10129 10125 10121 10117 10113 10110 10107 10104 10100 10097 10094 10091 10088 10085 10082 10079 10076 10073 10072 10070 10067 10064 10062 10059 10057 10055 10054 10051 10048 10046 10046 10044 10041 10040 10040 10040 10040 10038 10036 10035 10032 10026 10023 10024 10024 10024 10025 10023 10020 10020 10022 10024 10026 10028 10029 10031 10034 10035 10034 10034
10124 10120 10116 10112 10108 10103 10099 10096 10093 10090 10087 10084 10080 10076 10073 10069 10066 10063 10061 10058 10057 10055 10052 10049 10046 10044 10042 10041 10040 10037 10034 10032 10031 10030 10028 10027 10028 10028 10026 10023 10021 10020 10017 10012 10009 10009 10009 10009 10010 10009 10006 10005 10007 10009 10011 10012 10013 10015 10018 10019 10018 10017
10110 10107 10103 10099 10094 10089 10086 10082 10080 10077 10074 10070 10066 10062 10058 10055 10051 10048 10045 10043 10042 10039 10037 10034 10031 10029 10028 10027 10025 10023 10020 10018 10017 10015 10014 10014 10015 10015 10012 10009 10006 10005 10002 9998 9995 9994 9993 9994 9994 9995 9994 9992 9993 9994 9995 9996 9997 9998 10001 10004 10004 10002
10097 10094 10090 10086 10080 10075 10072 10069 10066 10064 10061 10057 10053 10048 10044 10041 10037 10034 10031 10029 10028 10025 10022 10020 10017 10015 10014 10013 10011 10009 10006 10004 10003 10002 10001 10001 10002 10001 9999 9995 9993 9991 9988 9985 9982 9978 9977 9979 9979 9979 9980 9981 9981 9980 9979 9980 9981 9982 9984 9988 9989 9988
10084 10080 10076 10071 10066 10062 10058 10055 10053 10051 10047 10043 10039 10034 10031 10027 10024 10021 10018 10016 10014 10012 10009 10006 10003 10001 10001 9999 9997 9995 9992 9990 9990 9989 9988 9988 9988 9987 9985 9982 9979 9977 9975 9972 9969 9965 9963 9963 9964 9964 9966 9968 9969 9967 9965 9965 9965 9966 9968 9971 9973 9972
10071 10067 10062 10058 10053 10048 10045 10042 10040 10037 10033 10028 10025 10020 10017 10014 10011 10007 10004 10002 10001 9999 9996 9993 9990 9989 9987 9985 9982 9981 9979 9978 9978 9976 9975 9975 9975 9973 9972 9969 9966 9964 9962 9960 9956 9953 9951 9949 9949 9950 9953 9954 9955 9954 9953 9952 9952 9951 9953 9955 9956 9957
10058 10053 10049 10045 10041 10036 10032 10030 10028 10024 10020 10015 10011 10007 10004 10000 9997 9994 9991 9989 9988 9986 9983 9980 9978 9976 9974 9971 9968 9967 9965 9965 9965 9964 9962 9962 9961 9960 9958 9956 9953 9950 9949 9947 9943 9941 9939 9936 9936 9938 9940 9941 9940 9940 9940 9939 9938 9938 9938 9939 9941 9942
10044 10040 10036 10032 10029 10025 10021 10018 10016 10012 10007 10003 9999 9996 9992 9988 9985 9982 9979 9977 9975 9973 9970 9968 9966 9964 9961 9958 9955 9953 9952 9951 9951 9951 9949 9949 9949 9948 9946 9943 9940 9937 9936 9934 9931 9929 9927 9924 9924 9926 9928 9928 9926 9925 9925 9925 9924 9924 9924 9925 9926 9927
10029 10026 10022 10019 10016 10013 10009 10006 10003 10000 9995 9990 9987 9985 9981 9977 9974 9970 9967 9965 9963 9961 9958 9955 9953 9952 9949 9946 9943 9941 9939 9937 9937 9937 9936 9934 9935 9936 9935 9932 9928 9924 9922 9921 9919 9917 9915 9913 9912 9913 9914 9915 9913 9912 9912 9911 9910 9910 9910 9911 9911 9911
10014 10012 10009 10006 10004 10000 9996 9993 9991 9988 9983 9978 9976 9974 9970 9967 9964 9960 9957 9954 9952 9949 9947 9944 9942 9940 9938 9935 9933 9930 9927 9923 9922 9924 9925 9923 9920 9920 9922 9921 9918 9913 9911 9909 9907 9905 9903 9902 9901 9900 9900 9900 9900 9899 9898 9898 9897 9896 9897 9898 9898 9896
10001 9998 9995 9993 9991 9987 9983 9980 9979 9976 9971 9967 9965 9963 9960 9957 9954 9950 9946 9944 9941 9938 9935 9933 9931 9929 9926 9924 9922 9920 9917 9912 9908 9908 9910 9912 9911 9908 9907 9908 9907 9903 9900 9898 9896 9893 9891 9890 9890 9889 9888 9887 9886 9885 9884 9883 9882 9883 9885 9886 9885 9883
9987 9984 9982 9979 9977 9973 9970 9968 9966 9963 9958 9955 9954 9951 9948 9946 9943 9940 9936 9933 9930 9927 9924 9922 9920 9918 9915 9913 9910 9908 9907 9904 9898 9893 9892 9895 9899 9899 9897 9896 9895 9892 9889 9887 9886 9884 9881 9879 9878 9878 9877 9876 9874 9873 9871 9869 9868 9869 9871 9872 9871 9870
9974 9971 9969 9966 9964 9961 9957 9955 9954 9950 9946 9944 9942 9939 9936 9934 9932 9929 9926 9923 9920 9916 9913 9911 9910 9907 9905 9902 9900 9897 9895 9893 9891 9886 9880 9878 9880 9884 9887 9887 9886 9882 9878 9875 9874 9874 9872 9870 9868 9867 9866 9865 9863 9861 9860 9857 9855 9855 9858 9860 9858 9855
9961 9959 9957 9955 9953 9949 9945 9944 9942 9938 9934 9933 9931 9928 9925 9923 9920 9918 9916 9913 9910 9906 9903 9900 9899 9897 9894 9892 9890 9887 9884 9882 9880 9878 9874 9869 9866 9866 9869 9873 9875 9874 9871 9866 9863 9862 9862 9861 9859 9857 9856 9855 9852 9849 9848 9847 9845 9843 9845 9848 9847 9843
9950 9947 9945 9944 9941 9937 9934 9932 9930 9926 9923 9921 9919 9916 9914 9912 9909 9907 9904 9902 9900 9896 9893 9890 9888 9886 9883 9881 9879 9877 9874 9872 9869 9867 9866 9863 9859 9856 9854 9855 9857 9859 9860 9859 9855 9852 9851 9850 9850 9848 9847 9845 9843 9840 9837 9836 9835 9834 9834 9835 9835 9833
9939 9937 9935 9932 9929 9925 9922 9920 9918 9914 9911 9909 9907 9904 9902 9900 9898 9895 9892 9890 9888 9886 9883 9880 9878 9876 9873 9870 9868 9866 9864 9862 9860 9857 9856 9854 9852 9849 9847 9845 9844 9843 9843 9845 9845 9843 9840 9839 9838 9838 9837 9835 9834 9832 9829 9826 9824 9823 9823 9824 9824 9822